STARLINK-3768 (52301 NORAD) Tracking and Keplerian Element Data

This shows tracking and keplerian element data for the satellite.

Feedback or suggestion? Click here.




ElementValue
Catalog52301
NameSTARLINK-3768
Epoch Orbit130
Epoch Day167.08334491
Epoch Year2022
RAAN101.4571
Inclination53.2172
Eccentricity0.000125
Argument of Perigee69.9792
Mean Anonmoly203.6675
Mean Motion15.54964829
Decay Rate-0.00712462
L11 52301U 22041AS 22167.08334491 -.00712462 00000+0 -11419-1 0 9990
L22 52301 53.2172 101.4571 0001250 69.9792 203.6675 15.54964829 1308

Live tracking and technical data element details for STARLINK-3768 (NORAD 52301). STARLINK-3768 can be tracked NOW for your location showing map with azimuth and elevation plus other details from your city location.

Track the satellite on the map from your city or location and see movement details for azimuth, elevation, latitude, longitude, range, height, and movement on the map or in text.







IsCatalogInMostPopularTable: catalog: 52301, numindb: 7
Update: records affected: 1



GetName: 52301 STARLINK-3768

Hit Count: updated at: Sat, 25 Jun 2022 04:13:47 GMT